Regional Weather Roundup
Issued by NWS Lake Charles, LA

Home | Current Version | Previous Version | Text Only | Print | Product List | Glossary On
Versions: 1 2 3 4 5 6 7 8 9 10 11 12 13 14 15 16 17 18 19 20 21 22 23 24 25 26 27 28
000
ASUS44 KLCH 192310
RWRLCH
REGIONAL WEATHER ROUNDUP
NATIONAL WEATHER SERVICE LAKE CHARLES LA
600 PM CDT SAT AUG 19 2017

Note: "fair" indicates few or no clouds below 12,000 feet with no
significant weather and/or obstructions to visibility.


ACROSS SOUTHEAST TEXAS

CITY           SKY/WX    TMP DP  RH WIND       PRES   REMARKS
BEAUMONT       MOSUNNY   91  74  57 S7        29.91F HX 100
BEAUMONT CITY  CLOUDY    96  69  42 MISG      29.92S HX 101
ORANGE         CLEAR     95  72  46 CALM      29.93F HX 103
JASPER           N/A     94  74  51 S5        29.94F HX 104
$$

ACROSS CENTRAL LOUISIANA

CITY           SKY/WX    TMP DP  RH WIND       PRES   REMARKS
LEESVILLE      CLOUDY    91  73  54 E5        29.92S HX 100
FULLERTON      MOCLDY    89  79  72 CALM      29.90S HX 104
ALEXANDRIA INT   N/A    N/A N/A N/A MISG      29.91S
ESLER FIELD    MOSUNNY   85  75  72 NE3       29.94S
DERIDDER       MOCLDY    93  71  48 S3        29.95S HAZE    HX 100
OAKDALE        CLEAR     93  73  50 W3        29.92F HX 102
OPELOUSAS      FAIR      92  75  58 CALM      29.93S HX 103
$$

ACROSS SOUTHWEST AND SOUTH CENTRAL LOUISIANA

CITY           SKY/WX    TMP DP  RH WIND       PRES   REMARKS
SULPHUR        CLEAR     94  69  44 CALM      29.92F HX 100
LAKE CHARLES   MOSUNNY   94  71  47 W3        29.91F HX 101
CHENNAULT INT  SUNNY     93  72  49 CALM      29.92S HX 100
CAMERON PHI    CLEAR     88  79  74 SW8       29.92S HX 102
DEQUINCY       FAIR      92  72  51 CALM      29.92F HX 100
JENNINGS       FAIR      92  72  51 N5        29.92F HX 100
LAFAYETTE      MOSUNNY   95  75  52 NE6       29.93S HX 107
NEW IBERIA     SUNNY     93  73  52 N6        29.94R HX 102
ABBEVILLE      FAIR      91  75  59 CALM      29.94R HX 102
PATTERSON      CLOUDY    84  74  71 SE12G25   29.97R THUNDER
SALT POINT       N/A     91  78  65 VRB3      29.94R HX 106
$$

SELECTED SITES ACROSS THE REGION

CITY           SKY/WX    TMP DP  RH WIND       PRES   REMARKS
HOUSTON BUSH   MOSUNNY   98  71  41 VRB3      29.90F HX 106
HOUSTON HOBBY  MOSUNNY   95  74  50 SE9       29.90F HX 105
GALVESTON      SUNNY     89  78  70 S10       29.93F HX 103
COLLEGE STAT   MOSUNNY   98  69  38 E7        29.89F HX 104
CONROE         SUNNY     95  69  42 SE6       29.91F HX 100
HUNTSVILLE     MOSUNNY   95  67  39 VRB3      29.91F
LUFKIN         CLOUDY    88  75  65 NE7       29.91F
SHREVEPORT     MOSUNNY   90  78  68 S5        29.91S HX 104
MONROE         MOSUNNY   96  73  47 CALM      29.94R HX 105
NATCHEZ MS     CLOUDY    83  73  72 SE6       29.98F
BATON ROUGE    TSTM      74  73  97 NE23G36   29.98R VSB 1
N.O. INTL ARPT CLOUDY    85  75  72 E8        29.99R
SLIDELL        CLOUDY    77  73  87 N8        29.96S
$$

MARINE REPORTS

STATION/POSITION TIME  SKY/WX   TEMP    WIND        PRES    VSBY
                                AIR SEA DIR/SP/G
                 (UTC)          (F)     (DEG/KT/KT) (MB)    (MI)
BUOY 30 S HIGH I NOT AVBL
SEA RIM ST PARK  2200            87     190/  8/ 10 1014.2F
PORT ARTHUR      2236            90 90  200/  6/  8 1013.5F
SABINE PASS N    2236            88 90  200/  6/  9 1014.8F
TEXAS POINT      NOT AVBL
CALCASIEU PASS   2248               90  240/ 10/ 10 1012.6F
LK CHARLES BEACH 2236            97 91              1013.7F
MARSH ISLAND     2200            88                   N/A
FRESH WATER LOCK 2236            89 91  220/  9/ 14 1013.5S
AMERADA PASS     2236            90 90  190/  2/  5 1014.3R
$$




USA.gov is the U.S. government's official web portal to all federal, state and local government web resources and services.